Regional Weather Roundup
Issued by NWS

Home | Current Version | Previous Version | Text Only | Print | Product List | Glossary Off
Versions: 1 2 3 4 5 6 7 8 9 10 11 12 13 14 15 16 17 18 19 20 21 22 23 24 25 26 27 28 29 30 31 32 33 34 35 36 37 38 39 40 41 42 43 44 45 46 47 48 49 50

000
ASUS43 KTOP 080408
RWRKS

WEATHER ROUNDUP FOR KANSAS
NATIONAL WEATHER SERVICE GOODLAND KS
1000 PM CST WED DEC 07 2016

NOTE:  "FAIR" INDICATES FEW OR NO CLOUDS BELOW 12,000 FEET WITH NO
SIGNIFICANT WEATHER AND/OR OBSTRUCTIONS TO VISIBILITY.

KSZ001>006-013>018-027>032-041>047-080500-
NORTHWEST KANSAS

CITY           SKY/WX    TMP DP  RH WIND       PRES   REMARKS
GOODLAND       CLEAR      3  -1  83 NW17      30.45R WCI -17
HAYS           CLEAR     12   9  87 W9        30.53R
HILL CITY      CLEAR      9   5  84 W7        30.53R
RUSSELL        CLEAR     16  11  80 NW10      30.51R WCI   4
$$

KSZ061>065-074>080-084>089-080500-
SOUTHWEST KANSAS

CITY           SKY/WX    TMP DP  RH WIND       PRES   REMARKS
DODGE CITY     PTCLDY    17  12  80 N16       30.49R WCI   2
ELKHART          N/A     16   3  56 N14         N/A  WCI   2
GARDEN CITY    PTCLDY    12   7  80 N8        30.49R
GREAT BEND     CLEAR     18  13  80 NW14      30.51R WCI   4
LIBERAL        CLOUDY    21  12  68 N17       30.49R WCI   7
PRATT          CLEAR     17  12  80 NW10      30.51R WCI   5
$$

KSZ066>073-081>083-090>101-080500-
SOUTHEAST KANSAS

CITY           SKY/WX    TMP DP  RH WIND       PRES   REMARKS
CHANUTE        CLEAR     22  17  81 MISG      30.48R
COFFEYVILLE    CLEAR     24  21  88 N8        30.49R
HUTCHINSON     CLEAR     21  14  74 NW12      30.50R WCI   9
MEDICINE LODGE   N/A     23  15  71 N15       30.52R WCI  10
NEWTON         CLEAR     20  14  77 NW13      30.49R WCI   7
PARSONS        PTCLDY    23  20  88 N7        30.49R
WICHITA INTL   CLEAR     23  16  74 N15       30.50R WCI  10
WICHITA JABRA  CLEAR     20  16  84 NW13      30.49R WCI   7
WICHITA MCCONL CLEAR     22  16  75 N17       30.49R WCI   8
WINFIELD       CLEAR     22  18  85 N10       30.51R WCI  11
$$

KSZ007>012-019>026-033>040-048>060-102>105-080500-
NORTHEAST KANSAS

CITY           SKY/WX    TMP DP  RH WIND       PRES   REMARKS
CONCORDIA      CLEAR     15   8  73 NW8       30.51R
EMPORIA        CLEAR     19  14  81 NW8       30.48R
LAWRENCE       CLEAR     17  10  74 NW7       30.48R
MANHATTAN      CLEAR     19   9  65 W3        30.51R
MARYSVILLE     CLEAR     19   9  63 NW8       30.48R
OLATHE IND     CLEAR     20  11  68 NW10      30.46R WCI   9
OLATHE EXE     CLEAR     20  10  65 NW7       30.45R
SALINA         CLEAR     19  14  81 NW10      30.53R WCI   7
TOPEKA BILLARD CLEAR     21  10  62 W8        30.49R
TOPEKA FORBES  CLEAR     21  11  65 NW12      30.47R WCI   9
$$




USA.gov is the U.S. government's official web portal to all federal, state and local government web resources and services.